Location: Arboyeti
(42.1122°N, 44.6017°E)
Time: 15:20:59
(UTC+00:00)

Nadezhda 2 Rocket - Pass Details

Date: 19 April 2021
Orbit: 947 x 1011 km, 83.0° (Epoch: 07 May)

Event Time Altitude Azimuth Distance (km) Brightness Sun altitude
Rises 18:54:22 0° 353° (N) 3,699 8.4 -29.1°
Reaches altitude 10° 18:56:55 10° 354° (N) 2,738 7.6 -29.4°
Enters shadow 19:02:53 78° 41° (NE) 994 4.4 -30.0°
